Tracking 18945 objects as of 21-Jan-2018
HD Live streaming from Space Station
objects crossing your sky now

NIMBUS 2 DEB

Track NIMBUS 2 DEB now!
10-day predictions


NORAD ID: 28206
Int'l Code: 1966-040U
Perigee: 1,068.0 km
Apogee: 1,153.4 km
Inclination: 100.4 °
Period: 107.3 minutes
Semi major axis: 7481 km
RCS: 0.0203 m2 (small)
Launch date: May 15, 1966
Source: United States (US)
Launch site: AIR FORCE WESTERN TEST RANGE (AFWTR)

Note: This is SATELLITE DEBRIS
aabbcc
Your satellite tracking list
Your tracking list is empty




NASA's NSSDC Master Catalog

Two Line Element Set (TLE):
1 28206U 66040U   18020.55864255 +.00000401 +00000-0 +79622-3 0  9999
2 28206 100.3778 135.1617 0057045 184.0319 307.9057 13.41539414679601
Source of the keplerian elements: AFSPC